Weather History for PAHN - May, 2013

Change the Weather History Date:

Saturday, May 18, 2013

  Actual Average Record
Temperature  
Mean Temperature 46 °F -  
Max Temperature 50 °F 55 °F 72 °F (1977)
Min Temperature 42 °F 41 °F 34 °F (1975)
Degree Days  
Heating Degree Days 19    
Moisture  
Dew Point 42 °F    
Average Humidity 82    
Maximum Humidity 93    
Minimum Humidity 59    
Precipitation  
Precipitation 0.42 in - - ()
Sea Level Pressure  
Sea Level Pressure 29.81 in    
Wind  
Wind Speed 11 mph (ESE)    
Max Wind Speed 21 mph    
Max Gust Speed 34 mph    
Visibility 9 miles    
Events Rain    
Averages and records for this station are not official NWS values.
T = Trace of Precipitation, MM = Missing Value Source: NWS Daily Summary

Daily Weather History Graph

Daily Weather History Graph

Search for Another Location

Airport or City:

Trip Planner

Search our weather history database for the weather conditions in past years. The results will help you decide how hot, cold, wet, or windy it might be!

Date:

Astronomy

May. 18, 2013 Rise Set
Actual Time 4:22 AM AKDT 9:36 PM AKDT
Civil Twilight 3:19 AM AKDT 10:39 PM AKDT
Nautical Twilight 1:30 AM AKDT 12:26 AM AKDT
Astronomical Twilight Sun does not rise Sun does not rise
Moon 1:08 PM AKDT (5/18) 2:02 AM AKDT (5/18)
Length of Visible Light 19h 20m
Length of Day
17h 14m
First Quarter, 56% of the Moon is Illuminated
May 18
First Quarter
May 24
Full
May 31
Last Quarter
Jun 8
New
Jun 16
First Quarter

Hourly Weather History & Observations

Time (AKDT) Temp. Windchill Dew Point Humidity Pressure Visibility Wind Dir Wind Speed Gust Speed Precip Events Conditions
12:47 AM 46.4 °F 42.9 °F 44.6 °F 93% 29.69 in 10.0 mi East 6.9 mph 18.4 mph 0.02 in Rain Light Rain
12:54 AM 46.9 °F - 44.1 °F 90% 29.70 in 10.0 mi ESE 8.1 mph - 0.03 in Rain Light Rain
1:17 AM 46.4 °F 43.5 °F 44.6 °F 93% 29.70 in 8.0 mi ESE 5.8 mph - 0.01 in Rain Light Rain
1:32 AM 46.4 °F 42.4 °F 44.6 °F 93% 29.69 in 9.0 mi East 8.1 mph - 0.03 in Rain Light Rain
1:49 AM 46.4 °F 41.1 °F 44.6 °F 93% 29.68 in 9.0 mi East 11.5 mph 16.1 mph 0.04 in Rain Light Rain
1:54 AM 46.9 °F - 44.1 °F 90% 29.69 in 10.0 mi East 8.1 mph 16.1 mph 0.04 in Rain Light Rain
2:22 AM 46.4 °F 42.4 °F 44.6 °F 93% 29.69 in 7.0 mi East 8.1 mph - 0.03 in Rain Light Rain
2:54 AM 46.9 °F - 44.1 °F 90% 29.70 in 8.0 mi East 8.1 mph 18.4 mph 0.07 in Rain Rain
3:54 AM 46.9 °F - 44.1 °F 90% 29.70 in 8.0 mi East 9.2 mph 18.4 mph 0.07 in Rain Light Rain
4:54 AM 46.0 °F 41.0 °F 44.1 °F 93% 29.70 in 6.0 mi East 10.4 mph - 0.05 in Rain Rain
5:54 AM 46.9 °F - 44.1 °F 90% 29.70 in 7.0 mi East 13.8 mph 23.0 mph 0.07 in Rain Light Rain
6:54 AM 46.9 °F - 44.1 °F 90% 29.71 in 6.0 mi East 11.5 mph 21.9 mph 0.07 in Rain Light Rain
7:54 AM 46.9 °F - 45.0 °F 93% 29.71 in 10.0 mi East 15.0 mph 24.2 mph 0.01 in Rain Light Rain
8:45 AM 48.2 °F - 44.6 °F 87% 29.71 in 10.0 mi ENE 15.0 mph 23.0 mph 0.00 in   Overcast
8:54 AM 48.0 °F - 44.1 °F 86% 29.73 in 10.0 mi East 12.7 mph 26.5 mph 0.00 in   Overcast
9:54 AM 48.9 °F - 45.0 °F 86% 29.73 in 10.0 mi East 12.7 mph 18.4 mph N/A   Overcast
10:54 AM 48.0 °F - 45.0 °F 89% 29.76 in 10.0 mi ESE 17.3 mph 21.9 mph 0.00 in Rain Light Rain
11:25 AM 46.4 °F 40.4 °F 42.8 °F 87% 29.76 in 10.0 mi East 13.8 mph 27.6 mph 0.01 in Rain Light Rain
11:39 AM 48.2 °F - 42.8 °F 82% 29.77 in 10.0 mi East 10.4 mph 25.3 mph 0.01 in Rain Light Rain
11:54 AM 48.0 °F - 44.1 °F 86% 29.78 in 10.0 mi ESE 13.8 mph 18.4 mph 0.01 in   Overcast
12:29 PM 48.2 °F - 44.6 °F 87% 29.78 in 10.0 mi ESE 18.4 mph 29.9 mph 0.00 in   Mostly Cloudy
12:44 PM 48.2 °F - 44.6 °F 87% 29.79 in 10.0 mi East 18.4 mph 27.6 mph 0.00 in   Mostly Cloudy
12:54 PM 48.9 °F - 44.1 °F 83% 29.80 in 10.0 mi ESE 13.8 mph 24.2 mph 0.00 in   Mostly Cloudy
1:02 PM 48.2 °F - 44.6 °F 87% 29.79 in 10.0 mi ESE 10.4 mph 23.0 mph N/A   Mostly Cloudy
1:27 PM 48.2 °F - 41.0 °F 76% 29.81 in 10.0 mi ESE 11.5 mph 24.2 mph N/A   Overcast
1:54 PM 48.9 °F - 42.1 °F 77% 29.84 in 10.0 mi ESE 17.3 mph 28.8 mph N/A   Mostly Cloudy
2:08 PM 48.2 °F - 41.0 °F 76% 29.84 in 10.0 mi ESE 20.7 mph 34.5 mph N/A   Mostly Cloudy
2:54 PM 48.0 °F - 41.0 °F 77% 29.88 in 10.0 mi SE 18.4 mph 33.4 mph N/A   Mostly Cloudy
3:54 PM 48.9 °F - 42.1 °F 77% 29.91 in 10.0 mi ESE 18.4 mph 31.1 mph N/A   Mostly Cloudy
4:54 PM 50.0 °F - 41.0 °F 71% 29.94 in 10.0 mi SE 16.1 mph 27.6 mph 0.00 in   Overcast
5:54 PM 48.0 °F - 37.9 °F 68% 29.95 in 10.0 mi ESE 15.0 mph 25.3 mph N/A   Overcast
6:54 PM 46.9 °F - 33.1 °F 59% 29.97 in 10.0 mi ESE 13.8 mph 25.3 mph N/A   Scattered Clouds
7:54 PM 46.0 °F 39.6 °F 33.1 °F 61% 30.02 in 10.0 mi ESE 15.0 mph 28.8 mph N/A   Overcast
8:54 PM 44.1 °F 36.5 °F 33.1 °F 65% 30.05 in 10.0 mi ESE 17.3 mph 26.5 mph 0.00 in Rain Light Rain
9:54 PM 43.0 °F 36.8 °F 33.1 °F 68% 30.09 in 10.0 mi East 11.5 mph 20.7 mph 0.00 in   Overcast
10:54 PM 42.1 °F 35.7 °F 32.0 °F 67% 30.12 in 10.0 mi East 11.5 mph 19.6 mph N/A   Overcast
11:54 PM 42.1 °F 34.9 °F 33.1 °F 70% 30.15 in 10.0 mi ESE 13.8 mph 23.0 mph N/A   Overcast